[[{"header":{"parameterUnit":"m.s-1","parameterCategory":2,"la1":30.2991,"la2":30.254,"lo1":-89.0895,"lo2":-89.0444,"dy":0.0017,"dx":0.0017,"nx":28,"ny":28,"refTime":"2025-01-11T09:00:00:Z","depth":"0","parameterNumber":2,"parameterNumberName":"U-component_of_CURRENTS"},"data":[0,0,0,0,0,0,0,0,0,0,0,0,0,0,0,0,0,0,0,0,0,0,0,0,0,0,0,0,0,0,0,0,0,0,0,0,0,0,0,0,0,0,0,0,0,0,0,0,0,0,0,0,0,0,0,0,0,0,0.3262,0.3262,0,0.3278,0.3278,0.3278,0.326,0.3259,0.3259,0.3258,0.3238,0.3238,0.3238,0,0,0,0,0,0,0,0,0,0,0,0,0,0.3233,0.3234,0.3262,0.3262,0.3263,0.3278,0.3278,0.3278,0.326,0.3259,0.3258,0.3258,0.3238,0.3238,0.3238,0,0,0,0,0,0,0,0,0,0,0,0,0,0.3245,0.3234,0.3262,0.3257,0.3257,0.3278,0.3278,0.3278,0.326,0.3259,0.3258,0.3258,0.3238,0.3238,0.3238,0.3252,0,0,0.3238,0.3238,0,0,0,0,0,0,0,0,0.3244,0.3246,0.3257,0.3257,0.3257,0.3268,0.3261,0.3269,0.326,0.3256,0.3258,0.3257,0.3247,0.3246,0.3248,0.3251,0.325,0.3238,0.3238,0.3238,0.3238,0,0,0,0,0,0,0,0.3244,0.3245,0.3266,0.3258,0.3258,0.3261,0.3261,0.3263,0.3253,0.3257,0.3256,0.3262,0.3246,0.3248,0.3247,0.325,0.3238,0.3238,0.3238,0.3238,0.3295,0.3297,0,0,0,0,0,0,0.3246,0.3244,0.3266,0.3267,0.3252,0.3262,0.3262,0.3264,0.3254,0.3253,0.3262,0.3261,0.3249,0.3248,0.3247,0.3285,0.3238,0.3238,0.3237,0.3294,0.3296,0.3297,0,0,0,0,0,0,0.3245,0.3248,0.3265,0.3258,0.3261,0.3263,0.3265,0.3264,0.3271,0.3259,0.3256,0.327,0.3248,0.3247,0.3261,0.3283,0.3237,0.3237,0.3292,0.3294,0.3297,0.3347,0,0,0,0,0,0,0.3244,0.3247,0.3249,0.3258,0.3261,0.3282,0.3266,0.3265,0.3276,0.3275,0.3265,0.3262,0.3247,0.3262,0.3261,0.3282,0.3237,0.329,0.3293,0.3296,0.3343,0.3351,0.3357,0,0,0,0,0,0.3243,0.3247,0.3249,0.3252,0.3263,0.3283,0.3285,0.3282,0.3278,0.3285,0.3284,0.3262,0.328,0.3263,0.3262,0.3283,0.3288,0.3292,0.3296,0.334,0.3349,0.3357,0,0,0,0,0,0,0.3228,0.3246,0.3248,0.3255,0.3271,0.3281,0.3287,0.3291,0.3297,0.3295,0.3281,0.3279,0.3303,0.329,0.3271,0.3311,0.3282,0.3286,0.3316,0.3325,0.3331,0.3343,0.3237,0,0,0,0,0,0.3229,0.324,0.3257,0.3263,0.3273,0.3284,0.3292,0.3296,0.3304,0.3305,0.33,0.3302,0.3318,0.3318,0.3324,0.3342,0.3349,0.3357,0.3364,0.337,0.3381,0.3419,0.3431,0.3309,0.3309,0.3309,0,0,0.3223,0.3237,0.324,0.3262,0.3272,0.3295,0.3286,0.3304,0.3326,0.3303,0.3324,0.3328,0.3331,0.3354,0.3363,0.3344,0.341,0.3375,0.338,0.3388,0.3424,0.3436,0.3447,0.3312,0.3311,0.3311,0,0,0.3224,0.3232,0.3245,0.3264,0.3291,0.3305,0.3314,0.3333,0.3342,0.3369,0.3365,0.3386,0.3393,0.3406,0.3413,0.3465,0.345,0.3463,0.35,0.3537,0.3547,0.3556,0.3583,0.3594,0.346,0.346,0.346,0,0.3217,0.3236,0.3251,0.3274,0.3293,0.3313,0.3336,0.3357,0.3377,0.3394,0.3381,0.3428,0.3423,0.3471,0.3487,0.3481,0.3494,0.3464,0.3546,0.3555,0.3563,0.3588,0.36,0.3463,0.3463,0.3462,0.3462,0,0.3231,0.325,0.3261,0.3299,0.3323,0.3346,0.3382,0.3406,0.3422,0.3442,0.3491,0.3499,0.3524,0.353,0.3522,0.3583,0.3572,0.3554,0.3522,0.3579,0.3601,0.3612,0.3467,0.3466,0.3465,0.3464,0,0,0.32,0.3259,0.3263,0.3283,0.3339,0.3355,0.3407,0.3455,0.3497,0.3518,0.3571,0.36,0.3606,0.3616,0.3616,0.3646,0.3713,0.3625,0.3626,0.3647,0.3793,0.3775,0.3785,0.3708,0.371,0.3712,0.3785,0,0.3205,0.3245,0.3282,0.3322,0.3344,0.3391,0.3441,0.349,0.3536,0.3592,0.362,0.367,0.3639,0.3664,0.3689,0.3719,0.3745,0.3695,0.3739,0.3741,0.3715,0.3798,0.3697,0.3754,0.3796,0.3798,0.3799,0,0.3201,0.3232,0.327,0.3337,0.3352,0.3386,0.347,0.352,0.3612,0.3654,0.3709,0.3737,0.3798,0.3761,0.3832,0.3802,0.3801,0.3813,0.3815,0.379,0.3744,0.3705,0.3772,0.3716,0.3816,0.3814,0.3813,0,0.3155,0.3219,0.3246,0.3267,0.3351,0.3382,0.3433,0.353,0.3591,0.3701,0.376,0.3826,0.3877,0.3896,0.3917,0.3881,0.3993,0.3943,0.3924,0.3921,0.3841,0.3828,0.3855,0.3987,0.3987,0.3987,0.3987,0,0.3137,0.3156,0.3225,0.3239,0.3287,0.3356,0.3428,0.3502,0.3622,0.3695,0.3783,0.3855,0.3915,0.3977,0.3965,0.3997,0.403,0.3957,0.3952,0.3856,0.3844,0.3794,0.3761,0.399,0.3989,0.3988,0.3988,0,0.3077,0.3122,0.3155,0.3236,0.3263,0.3295,0.3415,0.3471,0.3604,0.3708,0.3749,0.3902,0.3992,0.4045,0.4105,0.407,0.4,0.4083,0.3967,0.3947,0.3854,0.3827,0.3706,0.3583,0.4075,0.4075,0.4075,0,0.3048,0.3058,0.3132,0.3149,0.3184,0.3247,0.3294,0.3438,0.3507,0.3716,0.3757,0.3915,0.4004,0.4124,0.4118,0.4137,0.4001,0.4025,0.3935,0.3865,0.3832,0.3671,0.3563,0.3846,0.3845,0.3843,0.3842,0,0.2995,0.3019,0.3045,0.3085,0.3123,0.317,0.3252,0.3306,0.3472,0.3576,0.3714,0.3822,0.3996,0.4004,0.4075,0.406,0.3867,0.3995,0.3954,0.3696,0.3491,0.3364,0.3779,0.383,0.3831,0.3832,0.3832,0.3833,0.2945,0.2947,0.298,0.3005,0.3039,0.3064,0.3067,0.317,0.3261,0.3391,0.3567,0.3687,0.386,0.3968,0.3929,0.3859,0.3786,0.3745,0.3732,0.3585,0.3421,0.3815,0.3839,0.384,0.3841,0.3842,0.3843,0,0.287,0.2878,0.2899,0.2908,0.2888,0.2953,0.3005,0.2989,0.3025,0.3223,0.3334,0.3516,0.3604,0.3708,0.3755,0.3635,0.3431,0.3531,0.3288,0.3201,0.36,0.3548,0.3472,0.3472,0.3472,0.3472,0.3472,0.3472,0.2833,0.2807,0.2813,0.2745,0.2746,0.2677,0.2674,0.2689,0.2786,0.2885,0.2999,0.3164,0.3505,0.3696,0.3641,0.353,0.3239,0.3099,0.3049,0.3377,0.3395,0.3412,0.3356,0.3242,0.3241,0.2513,0.2508,0.2504]},{"header":{"parameterUnit":"m.s-1","parameterCategory":2,"la1":30.2991,"la2":30.254,"lo1":-89.0895,"lo2":-89.0444,"dy":0.0017,"dx":0.0017,"nx":28,"ny":28,"refTime":"2025-01-11T09:00:00:Z","depth":"0","parameterNumber":3,"parameterNumberName":"V-component_of_CURRENTS"},"data":[0,0,0,0,0,0,0,0,0,0,0,0,0,0,0,0,0,0,0,0,0,0,0,0,0,0,0,0,0,0,0,0,0,0,0,0,0,0,0,0,0,0,0,0,0,0,0,0,0,0,0,0,0,0,0,0,0,0,0.0056,0.0055,0,0.0009,0.0009,0.0008,-0.0031,-0.0032,-0.0032,-0.0032,-0.0109,-0.011,-0.0112,0,0,0,0,0,0,0,0,0,0,0,0,0,0.0035,0.0036,0.0056,0.0055,0.0055,0.0009,0.0009,0.0008,-0.0031,-0.0032,-0.0032,-0.0032,-0.0108,-0.011,-0.0112,0,0,0,0,0,0,0,0,0,0,0,0,0,0.0021,0.0036,0.0056,0.0031,0.0028,0.0009,0.0008,0.0008,-0.0031,-0.0032,-0.0032,-0.0033,-0.0107,-0.011,-0.0113,-0.012,0,0,-0.0121,-0.0122,0,0,0,0,0,0,0,0,0.0022,0.0021,0.0035,0.0033,0.003,-0.0004,-0.0027,-0.0036,-0.0031,-0.001,-0.0032,-0.0033,-0.0075,-0.0081,-0.009,-0.0124,-0.0127,-0.0121,-0.0122,-0.0124,-0.0124,0,0,0,0,0,0,0,0.0023,0.0023,0.0036,0.0035,0.0031,-0.0004,-0.0006,-0.0029,-0.0042,-0.0012,-0.0015,-0.0017,-0.0077,-0.0087,-0.0092,-0.0128,-0.0121,-0.0123,-0.0125,-0.0126,-0.0171,-0.0171,0,0,0,0,0,0,0.0036,0.0024,0.0037,0.0034,0.0026,-0.0003,-0.0005,0.0006,-0.0041,-0.0048,-0.0017,-0.0019,-0.0083,-0.0089,-0.0095,-0.0092,-0.0124,-0.0126,-0.0128,-0.0171,-0.0171,-0.0171,0,0,0,0,0,0,0.0036,0.0038,0.0039,0.0028,0.0026,-0.0001,0.0011,0.0005,-0.0001,-0.0044,-0.0052,-0.0016,-0.0083,-0.0091,-0.0108,-0.0096,-0.0127,-0.013,-0.0172,-0.0171,-0.0171,-0.0094,0,0,0,0,0,0,0.0036,0.0039,0.0049,0.003,0.0027,0.004,0.0011,0.0004,-0.0001,-0.0005,-0.0046,-0.0054,-0.0084,-0.0103,-0.011,-0.01,-0.0132,-0.0172,-0.0172,-0.0171,-0.0097,-0.0091,-0.0086,0,0,0,0,0,0.0036,0.0058,0.005,0.0051,0.0043,0.0041,0.0037,0.0014,-0.0001,0.0005,-0.0025,-0.0052,-0.0104,-0.0105,-0.0113,-0.0103,-0.0173,-0.0172,-0.0171,-0.01,-0.0093,-0.0086,0,0,0,0,0,0,0.0051,0.0056,0.0046,0.0068,0.0059,0.0036,0.0037,0.0022,0.0002,-0.0004,-0.0045,-0.0055,-0.0066,-0.0095,-0.0095,-0.0115,-0.0144,-0.0144,-0.0087,-0.008,-0.0075,-0.0054,-0.0134,0,0,0,0,0,0.0061,0.008,0.0071,0.0086,0.0086,0.0062,0.0057,0.0043,0.0024,0.0014,-0.0014,-0.0046,-0.0069,-0.0082,-0.0108,-0.0116,-0.0151,-0.0117,-0.0111,-0.0106,-0.0095,-0.0138,-0.0135,-0.0168,-0.0168,-0.0168,0,0,0.007,0.0074,0.0083,0.009,0.0079,0.0095,0.0058,0.0058,0.0067,0.0009,0.0011,-0.0026,-0.0067,-0.0077,-0.0085,-0.0099,-0.0116,-0.0105,-0.01,-0.0092,-0.0136,-0.0133,-0.013,-0.0167,-0.0167,-0.0167,0,0,0.0102,0.0102,0.0131,0.0133,0.0128,0.0117,0.0123,0.0106,0.0094,0.0088,0.0049,0.0024,-0.0012,-0.0037,-0.0055,-0.0034,-0.0084,-0.0045,0.0001,-0.004,-0.0037,-0.0036,-0.0076,-0.0079,-0.0043,-0.0042,-0.0042,0,0.0111,0.015,0.0136,0.0163,0.0174,0.0135,0.0168,0.0152,0.013,0.0127,0.0099,0.0047,0.0009,-0.0,0.0004,-0.0019,-0.0052,-0.0019,-0.0032,-0.0031,-0.003,-0.0072,-0.0076,-0.0039,-0.0039,-0.0039,-0.004,0,0.017,0.0197,0.0213,0.0241,0.0248,0.0267,0.0251,0.0248,0.0224,0.0205,0.0186,0.0126,0.0099,0.0077,0.0046,0.0036,0.0008,-0.0019,-0.0045,-0.0022,-0.0068,-0.0073,-0.0033,-0.0035,-0.0036,-0.0037,0,0,0.0206,0.0249,0.0255,0.0285,0.0294,0.031,0.0323,0.033,0.0347,0.0296,0.0308,0.0247,0.0208,0.0185,0.0135,0.0093,0.0062,0.0045,0.0041,0.0012,-0.003,-0.0046,-0.0054,0.0032,0.0031,0.0031,-0.0064,0,0.0258,0.0333,0.0337,0.0401,0.0441,0.0419,0.044,0.0434,0.0415,0.0413,0.0337,0.0324,0.0251,0.0237,0.0186,0.0099,0.0052,0.009,-0.0054,-0.0058,-0.007,-0.0059,-0.0038,-0.012,-0.0069,-0.007,-0.0071,0,0.0321,0.0366,0.0443,0.0497,0.0511,0.0536,0.057,0.0587,0.0564,0.0546,0.0507,0.0446,0.0384,0.0314,0.0172,0.02,0.0097,0.0016,0.0009,-0.0033,-0.0084,-0.0137,-0.0132,-0.033,-0.0079,-0.0079,-0.0078,0,0.0371,0.0441,0.0509,0.0529,0.0578,0.0601,0.0624,0.0626,0.0664,0.0634,0.0648,0.0548,0.0512,0.0368,0.0198,0.0185,0.0034,-0.0007,-0.0123,-0.0126,-0.0149,-0.0153,-0.0345,-0.011,-0.011,-0.011,-0.0109,0,0.0436,0.0489,0.0537,0.0576,0.0661,0.0666,0.0746,0.0748,0.0772,0.083,0.0726,0.0742,0.0524,0.0409,0.0236,0.0049,0.0059,-0.0109,-0.0148,-0.0122,-0.0122,-0.033,-0.046,-0.0113,-0.0112,-0.0112,-0.0111,0,0.0487,0.0515,0.06,0.0663,0.0691,0.0753,0.0846,0.0905,0.0906,0.0978,0.0974,0.0889,0.0741,0.0514,0.0281,0.0116,-0.0194,-0.0149,-0.0104,-0.0136,-0.0423,-0.0548,-0.0796,-0.0873,-0.0288,-0.0289,-0.0289,0,0.0521,0.0571,0.0672,0.0733,0.0766,0.0859,0.0933,0.0973,0.1053,0.1078,0.1128,0.1004,0.0956,0.0608,0.0279,-0.003,-0.0229,-0.0221,-0.0244,-0.0433,-0.0603,-0.0692,-0.0745,-0.0253,-0.0253,-0.0253,-0.0254,0,0.059,0.062,0.0693,0.0825,0.0913,0.103,0.1138,0.1224,0.1277,0.1342,0.1399,0.1358,0.1019,0.0727,0.0287,0.0058,-0.0365,-0.0237,-0.0448,-0.0602,-0.0698,-0.079,-0.0203,-0.0257,-0.0256,-0.0256,-0.0256,-0.0256,0.0638,0.0703,0.08,0.0928,0.1038,0.1185,0.1303,0.1425,0.1572,0.169,0.1623,0.1626,0.1156,0.0573,0.0223,-0.0389,-0.0409,-0.0561,-0.0701,-0.0775,-0.0845,-0.026,-0.0347,-0.0347,-0.0347,-0.0348,-0.0348,0,0.0705,0.0781,0.09,0.1054,0.1189,0.1238,0.1434,0.157,0.1763,0.187,0.193,0.1715,0.1146,0.0545,-0.0285,-0.0742,-0.0908,-0.1012,-0.1144,-0.1175,-0.0664,-0.0656,-0.0793,-0.0793,-0.0793,-0.0793,-0.0793,-0.0792,0.074,0.0862,0.0928,0.1154,0.1269,0.1472,0.1596,0.1797,0.1938,0.2104,0.2128,0.21,0.163,0.0074,-0.0962,-0.1208,-0.1526,-0.1634,-0.1786,-0.1454,-0.1422,-0.1392,-0.1413,-0.1708,-0.1709,-0.2201,-0.2207,-0.2211]}],[{"header":{"parameterUnit":"m.s-1","parameterCategory":2,"la1":30.2991,"la2":30.254,"lo1":-89.0895,"lo2":-89.0444,"dy":0.0017,"dx":0.0017,"nx":28,"ny":28,"refTime":"2025-01-11T09:00:00:Z","depth":"2","parameterNumber":2,"parameterNumberName":"U-component_of_CURRENTS"},"data":[0,0,0,0,0,0,0,0,0,0,0,0,0,0,0,0,0,0,0,0,0,0,0,0,0,0,0,0,0,0,0,0,0,0,0,0,0,0,0,0,0,0,0,0,0,0,0,0,0,0,0,0,0,0,0,0,0,0,0.3021,0.3022,0,0.3041,0.3041,0.3041,0.3033,0.3033,0.3033,0.3033,0.3025,0.3025,0.3025,0,0,0,0,0,0,0,0,0,0,0,0,0,0.2987,0.2987,0.3021,0.3022,0.3022,0.3041,0.3041,0.3041,0.3033,0.3033,0.3033,0.3033,0.3025,0.3025,0.3025,0,0,0,0,0,0,0,0,0,0,0,0,0,0.3001,0.2987,0.3021,0.3022,0.3023,0.3041,0.3041,0.3041,0.3033,0.3033,0.3033,0.3032,0.3025,0.3025,0.3025,0.3032,0,0,0.3025,0.3025,0,0,0,0,0,0,0,0,0.3,0.3002,0.3022,0.3022,0.3023,0.3037,0.3026,0.3038,0.3034,0.3027,0.3033,0.3032,0.3028,0.3028,0.3029,0.3032,0.3031,0.3025,0.3025,0.3025,0.3025,0,0,0,0,0,0,0,0.2999,0.3001,0.3027,0.3022,0.3023,0.3026,0.3027,0.3028,0.3027,0.3027,0.3028,0.3034,0.3028,0.3029,0.3029,0.3031,0.3025,0.3025,0.3025,0.3025,0.3087,0.3088,0,0,0,0,0,0,0.3002,0.3,0.3026,0.3027,0.3014,0.3027,0.3028,0.3031,0.3027,0.3027,0.3034,0.3033,0.3029,0.3029,0.3029,0.3074,0.3025,0.3025,0.3025,0.3085,0.3087,0.3089,0,0,0,0,0,0,0.3001,0.3004,0.3025,0.3017,0.302,0.3028,0.3031,0.3031,0.3044,0.3033,0.3032,0.3048,0.3029,0.3029,0.3047,0.3073,0.3025,0.3025,0.3083,0.3086,0.3088,0.3142,0,0,0,0,0,0,0.3,0.3003,0.3009,0.3017,0.302,0.3044,0.3031,0.3032,0.3049,0.3048,0.3045,0.3043,0.3029,0.3047,0.3047,0.3072,0.3025,0.3081,0.3084,0.3087,0.3138,0.3146,0.3153,0,0,0,0,0,0.2998,0.3004,0.3009,0.3012,0.3027,0.3045,0.3047,0.3049,0.305,0.3059,0.3063,0.3043,0.3067,0.3049,0.3048,0.3073,0.308,0.3083,0.3087,0.3135,0.3144,0.3152,0,0,0,0,0,0,0.2987,0.3005,0.3009,0.3019,0.3036,0.3044,0.3054,0.306,0.3071,0.3074,0.3061,0.306,0.3089,0.3077,0.3057,0.3102,0.3072,0.3075,0.3108,0.3117,0.3124,0.3135,0.3025,0,0,0,0,0,0.2989,0.3001,0.3019,0.3028,0.3038,0.3051,0.3061,0.3067,0.3078,0.3082,0.3081,0.3087,0.3103,0.3106,0.3113,0.3133,0.3139,0.3152,0.3159,0.3165,0.3175,0.3212,0.3223,0.3101,0.3101,0.3101,0,0,0.2986,0.3,0.3005,0.3027,0.3039,0.3062,0.3055,0.3077,0.31,0.308,0.3108,0.3114,0.3116,0.3143,0.3154,0.3135,0.3204,0.317,0.3175,0.3182,0.3217,0.3229,0.3239,0.3104,0.3103,0.3103,0,0,0.2989,0.3001,0.3015,0.3034,0.3063,0.3076,0.3088,0.3108,0.3122,0.3152,0.315,0.3175,0.3186,0.3198,0.3205,0.3258,0.3246,0.326,0.3299,0.3335,0.3345,0.3354,0.3379,0.339,0.3259,0.3259,0.3259,0,0.2986,0.3005,0.3021,0.3044,0.3064,0.3086,0.311,0.3132,0.3157,0.3176,0.3168,0.3218,0.3215,0.3261,0.328,0.3275,0.3289,0.3262,0.3344,0.3353,0.3361,0.3385,0.3396,0.3262,0.3261,0.3261,0.3261,0,0.3,0.3022,0.3034,0.3071,0.3096,0.312,0.3156,0.3183,0.3205,0.3227,0.3279,0.3289,0.3317,0.3325,0.3318,0.338,0.337,0.3352,0.3319,0.3377,0.3398,0.3409,0.3266,0.3265,0.3264,0.3263,0,0,0.2976,0.3032,0.3037,0.3057,0.3114,0.3129,0.3183,0.3231,0.3276,0.3302,0.3357,0.3388,0.3399,0.341,0.3411,0.3442,0.3511,0.3425,0.3425,0.3446,0.359,0.3566,0.3575,0.3508,0.351,0.3511,0.3582,0,0.2983,0.3022,0.3057,0.3098,0.312,0.3167,0.3217,0.3267,0.3316,0.3375,0.3404,0.3458,0.3431,0.346,0.3486,0.3516,0.3542,0.3494,0.3535,0.3537,0.3505,0.3588,0.329,0.3327,0.3592,0.3594,0.3595,0,0.2981,0.3011,0.305,0.3113,0.3129,0.3165,0.3249,0.33,0.3393,0.3437,0.3495,0.3525,0.3588,0.3555,0.3625,0.3597,0.3599,0.361,0.3613,0.358,0.3533,0.3313,0.3336,0.3613,0.3612,0.361,0.3609,0,0.294,0.3002,0.303,0.3051,0.3131,0.3165,0.3217,0.3314,0.3375,0.3487,0.3547,0.3613,0.3667,0.3687,0.371,0.3677,0.3784,0.3735,0.3711,0.3709,0.3459,0.3431,0.3779,0.3779,0.3779,0.3779,0.3779,0,0.2924,0.2945,0.3013,0.3027,0.3077,0.3145,0.322,0.3293,0.3413,0.3484,0.3575,0.3643,0.3706,0.3766,0.3757,0.3784,0.382,0.3744,0.3738,0.347,0.3445,0.3688,0.3677,0.3781,0.3781,0.378,0.378,0,0.287,0.2914,0.2947,0.3028,0.3055,0.3092,0.3211,0.3267,0.34,0.3502,0.3545,0.3692,0.3779,0.383,0.3889,0.3853,0.3874,0.3863,0.3551,0.3508,0.3757,0.3748,0.3848,0.3848,0.3848,0.3848,0.3848,0,0.2843,0.2854,0.2929,0.2947,0.2984,0.3051,0.31,0.3241,0.3307,0.351,0.3548,0.3701,0.3779,0.389,0.3859,0.387,0.3899,0.3589,0.3475,0.3787,0.3771,0.3761,0.3752,0.3155,0.3149,0.3145,0.3141,0,0.2792,0.282,0.2846,0.2889,0.2931,0.2976,0.3059,0.3109,0.327,0.3371,0.3502,0.3599,0.3735,0.3633,0.3687,0.3638,0.357,0.3499,0.3905,0.3204,0.3145,0.3125,0.3136,0.31,0.3104,0.3107,0.3109,0.3111,0.2748,0.275,0.2785,0.2814,0.2851,0.2873,0.2876,0.2968,0.3053,0.3154,0.3326,0.3361,0.3419,0.3362,0.3267,0.3186,0.3426,0.3236,0.3244,0.3259,0.3187,0.3133,0.3071,0.3075,0.3078,0.3081,0.3084,0,0.2675,0.2686,0.2708,0.272,0.2701,0.2772,0.2817,0.2781,0.2807,0.2936,0.302,0.2811,0.2793,0.2834,0.2666,0.2697,0.2615,0.2567,0.2405,0.2451,0.2491,0.2372,0.2044,0.2041,0.2037,0.2034,0,0,0.2639,0.2615,0.2619,0.2557,0.2565,0.2498,0.2493,0.2466,0.2501,0.2471,0.2463,0.2681,0.2784,0.2367,0.2331,0.2151,0.2275,0.2073,0.2917,0.2775,0.281,0.2905,0.2781,0,0,0,0,0]},{"header":{"parameterUnit":"m.s-1","parameterCategory":2,"la1":30.2991,"la2":30.254,"lo1":-89.0895,"lo2":-89.0444,"dy":0.0017,"dx":0.0017,"nx":28,"ny":28,"refTime":"2025-01-11T09:00:00:Z","depth":"2","parameterNumber":3,"parameterNumberName":"V-component_of_CURRENTS"},"data":[0,0,0,0,0,0,0,0,0,0,0,0,0,0,0,0,0,0,0,0,0,0,0,0,0,0,0,0,0,0,0,0,0,0,0,0,0,0,0,0,0,0,0,0,0,0,0,0,0,0,0,0,0,0,0,0,0,0,0.0152,0.0151,0,0.0108,0.0107,0.0107,0.0069,0.0069,0.0068,0.0068,-0.0005,-0.0007,-0.0008,0,0,0,0,0,0,0,0,0,0,0,0,0,0.0133,0.0134,0.0152,0.0151,0.0151,0.0108,0.0107,0.0106,0.0069,0.0069,0.0068,0.0068,-0.0004,-0.0006,-0.0008,0,0,0,0,0,0,0,0,0,0,0,0,0,0.012,0.0134,0.0152,0.0128,0.0125,0.0108,0.0107,0.0106,0.0069,0.0069,0.0068,0.0068,-0.0004,-0.0006,-0.0009,-0.0014,0,0,-0.0016,-0.0017,0,0,0,0,0,0,0,0,0.0121,0.012,0.0132,0.0129,0.0127,0.0094,0.0074,0.0065,0.0069,0.0089,0.0068,0.0067,0.0027,0.0022,0.0013,-0.0018,-0.0021,-0.0016,-0.0018,-0.0019,-0.002,0,0,0,0,0,0,0,0.0122,0.0121,0.0133,0.0131,0.0128,0.0095,0.0093,0.0072,0.006,0.0087,0.0085,0.0082,0.0025,0.0016,0.0011,-0.0022,-0.0016,-0.0019,-0.002,-0.0021,-0.0066,-0.0066,0,0,0,0,0,0,0.0134,0.0123,0.0135,0.0132,0.0123,0.0096,0.0094,0.0104,0.006,0.0054,0.0082,0.008,0.002,0.0014,0.0008,0.001,-0.0019,-0.0021,-0.0023,-0.0066,-0.0066,-0.0066,0,0,0,0,0,0,0.0134,0.0136,0.0136,0.0126,0.0124,0.0098,0.0109,0.0104,0.0097,0.0057,0.005,0.0082,0.002,0.0012,-0.0004,0.0007,-0.0022,-0.0025,-0.0067,-0.0066,-0.0066,0.0007,0,0,0,0,0,0,0.0134,0.0136,0.0145,0.0128,0.0125,0.0137,0.0109,0.0103,0.0096,0.0093,0.0054,0.0047,0.0019,-0.0,-0.0007,0.0003,-0.0026,-0.0067,-0.0066,-0.0066,0.0004,0.001,0.0015,0,0,0,0,0,0.0133,0.0155,0.0146,0.0147,0.014,0.0138,0.0134,0.0112,0.0097,0.0102,0.0073,0.0048,-0.0002,-0.0002,-0.0009,-0.0,-0.0067,-0.0067,-0.0066,0.0002,0.0009,0.0014,0,0,0,0,0,0,0.0148,0.0152,0.0143,0.0163,0.0154,0.0132,0.0133,0.0118,0.0099,0.0093,0.0054,0.0045,0.0034,0.0006,0.0007,-0.0013,-0.004,-0.0041,0.0014,0.002,0.0025,0.0046,-0.0029,0,0,0,0,0,0.0157,0.0175,0.0167,0.018,0.018,0.0156,0.0151,0.0138,0.0119,0.011,0.0083,0.0052,0.003,0.0018,-0.0007,-0.0015,-0.0049,-0.0016,-0.0011,-0.0006,0.0005,-0.0038,-0.0035,-0.0063,-0.0064,-0.0064,0,0,0.0165,0.0169,0.0178,0.0184,0.0173,0.0188,0.0152,0.0151,0.016,0.0105,0.0106,0.0071,0.0032,0.0023,0.0015,0.0002,-0.0017,-0.0005,-0.0001,0.0007,-0.0037,-0.0034,-0.0032,-0.0063,-0.0063,-0.0063,0,0,0.0196,0.0195,0.0222,0.0224,0.0218,0.0208,0.0213,0.0196,0.0185,0.0178,0.0141,0.0116,0.0082,0.0059,0.0042,0.0061,0.0012,0.0049,0.0093,0.0052,0.0054,0.0056,0.0014,0.0012,0.0052,0.0052,0.0052,0,0.0203,0.0241,0.0227,0.0253,0.0263,0.0225,0.0256,0.0241,0.0219,0.0216,0.0188,0.0138,0.0101,0.0093,0.0097,0.0074,0.0041,0.0075,0.006,0.0061,0.0061,0.0018,0.0014,0.0055,0.0055,0.0055,0.0054,0,0.026,0.0286,0.0301,0.0328,0.0334,0.0352,0.0337,0.0333,0.0309,0.0291,0.027,0.0213,0.0186,0.0165,0.0136,0.0125,0.0097,0.0072,0.0048,0.0068,0.0021,0.0016,0.006,0.0059,0.0058,0.0057,0,0,0.0293,0.0336,0.034,0.037,0.0378,0.0394,0.0406,0.0413,0.0428,0.0377,0.0388,0.033,0.029,0.0268,0.022,0.0179,0.0146,0.0133,0.0129,0.0099,0.0053,0.0034,0.0025,0.0117,0.0116,0.0116,0.0019,0,0.0342,0.0415,0.0419,0.0482,0.0521,0.0499,0.0519,0.0514,0.0493,0.049,0.0415,0.0402,0.0332,0.0318,0.0267,0.0182,0.0135,0.0174,0.0032,0.0028,0.0014,0.002,0.0048,-0.0035,0.0014,0.0013,0.0012,0,0.0402,0.0446,0.0522,0.0575,0.0589,0.0613,0.0644,0.0661,0.0637,0.0619,0.0579,0.0519,0.0458,0.039,0.0249,0.0277,0.0176,0.0097,0.0091,0.0046,-0.0002,-0.0049,-0.0048,0.0002,0.0003,0.0004,0.0004,0,0.0449,0.0518,0.0584,0.0603,0.0652,0.0675,0.0697,0.0698,0.0734,0.0703,0.0715,0.0616,0.0579,0.0439,0.0271,0.026,0.0108,0.0071,-0.0046,-0.0049,-0.0065,-0.0069,-0.0031,-0.0031,-0.0031,-0.0031,-0.0031,0,0.0511,0.0562,0.061,0.0649,0.0731,0.0737,0.0814,0.0815,0.0837,0.0891,0.0789,0.08,0.0589,0.0474,0.0306,0.0119,0.0131,-0.0034,-0.0072,-0.004,-0.004,-0.0039,-0.0038,-0.0034,-0.0034,-0.0033,-0.0032,0,0.0559,0.0586,0.067,0.0732,0.0759,0.0819,0.091,0.0968,0.0966,0.1032,0.1028,0.0939,0.079,0.057,0.0341,0.0181,-0.0007,-0.008,-0.0028,-0.0059,-0.0148,-0.0143,-0.0217,-0.0219,-0.022,-0.0221,-0.0222,0,0.0592,0.064,0.0738,0.0798,0.083,0.0922,0.0994,0.1033,0.1108,0.1126,0.117,0.1044,0.0988,0.0644,0.0328,0.0027,-0.0014,-0.015,-0.0168,-0.0136,-0.0166,-0.0159,-0.0152,-0.0169,-0.0169,-0.0169,-0.017,0,0.0659,0.0686,0.0759,0.0886,0.0973,0.1088,0.1191,0.1271,0.132,0.1375,0.1417,0.1369,0.1035,0.0739,0.0312,0.0107,-0.0102,-0.0166,-0.0147,-0.0119,-0.0096,-0.0123,-0.0118,-0.0172,-0.0172,-0.0172,-0.0172,-0.0171,0.0705,0.0767,0.0862,0.0985,0.1092,0.1234,0.1347,0.1457,0.159,0.1672,0.1608,0.1542,0.1179,0.0649,0.0274,-0.0127,-0.0104,-0.0241,-0.0237,-0.0234,-0.0204,-0.0184,-0.0272,-0.0272,-0.0272,-0.0272,-0.0273,0,0.0769,0.0842,0.0957,0.1105,0.1235,0.1285,0.147,0.1585,0.1752,0.1797,0.1827,0.1488,0.1138,0.0714,0.0126,-0.0215,-0.0242,-0.0328,-0.0284,-0.0278,-0.0274,-0.0244,-0.0324,-0.0325,-0.0326,-0.0327,0,0,0.0803,0.0921,0.0983,0.1199,0.1309,0.1501,0.1617,0.1776,0.186,0.1927,0.1879,0.1776,0.1261,0.0832,0.0356,0.0014,-0.0053,-0.0056,0.0024,0.0139,0.0148,-0.0184,-0.0128,0,0,0,0,0]}],[{"header":{"parameterUnit":"m.s-1","parameterCategory":2,"la1":30.2991,"la2":30.254,"lo1":-89.0895,"lo2":-89.0444,"dy":0.0017,"dx":0.0017,"nx":28,"ny":28,"refTime":"2025-01-11T09:00:00:Z","depth":"4","parameterNumber":2,"parameterNumberName":"U-component_of_CURRENTS"},"data":[0,0,0,0,0,0,0,0,0,0,0,0,0,0,0,0,0,0,0,0,0,0,0,0,0,0,0,0,0,0,0,0,0,0,0,0,0,0,0,0,0,0,0,0,0,0,0,0,0,0,0,0,0,0,0,0,0,0,0.1905,0.1906,0,0.1972,0.1973,0.1973,0.2031,0.2032,0.2033,0.2034,0.2113,0.2114,0.2115,0,0,0,0,0,0,0,0,0,0,0,0,0,0.1818,0.1819,0.1905,0.1906,0.1907,0.1972,0.1973,0.1973,0.2031,0.2032,0.2033,0.2034,0.2112,0.2114,0.2115,0,0,0,0,0,0,0,0,0,0,0,0,0,0.1865,0.1819,0.1905,0.1945,0.195,0.1972,0.1973,0.1974,0.2031,0.2032,0.2034,0.2035,0.2112,0.2114,0.2116,0.2101,0,0,0.2122,0.2122,0,0,0,0,0,0,0,0,0.1862,0.1868,0.1938,0.1943,0.1948,0.1997,0.1971,0.2018,0.2031,0.1998,0.2034,0.2035,0.2076,0.2081,0.2087,0.2105,0.2108,0.2122,0.2123,0.2124,0.2124,0,0,0,0,0,0,0,0.1859,0.1865,0.1929,0.1939,0.1945,0.1958,0.1966,0.198,0.2027,0.2001,0.2006,0.2017,0.2078,0.2085,0.2089,0.2109,0.2122,0.2123,0.2125,0.2125,0.2253,0.2255,0,0,0,0,0,0,0.1855,0.1862,0.1927,0.1931,0.191,0.1958,0.1967,0.1978,0.2027,0.2036,0.2015,0.2019,0.2081,0.2087,0.2092,0.2194,0.2124,0.2125,0.2127,0.225,0.2253,0.2256,0,0,0,0,0,0,0.1853,0.186,0.1924,0.19,0.191,0.1959,0.197,0.1978,0.203,0.2038,0.2047,0.2063,0.2082,0.2089,0.2148,0.2194,0.2126,0.2128,0.2248,0.2251,0.2254,0.2324,0,0,0,0,0,0,0.185,0.1858,0.1884,0.19,0.1911,0.1963,0.1969,0.1979,0.2033,0.2039,0.2081,0.2087,0.2084,0.2145,0.215,0.2195,0.213,0.2245,0.2249,0.2253,0.2319,0.2329,0.2338,0,0,0,0,0,0.1846,0.1867,0.1885,0.1894,0.1938,0.1965,0.1972,0.2009,0.2034,0.206,0.2097,0.2089,0.2175,0.2148,0.2153,0.22,0.2243,0.2248,0.2253,0.2315,0.2327,0.2338,0,0,0,0,0,0,0.1842,0.1875,0.1896,0.1927,0.1959,0.1976,0.201,0.2033,0.2082,0.2105,0.2112,0.2121,0.219,0.2187,0.2157,0.2251,0.221,0.2216,0.2255,0.2267,0.2277,0.228,0.2131,0,0,0,0,0,0.1853,0.1883,0.191,0.1941,0.1961,0.1995,0.202,0.2046,0.2081,0.2106,0.2136,0.2172,0.2206,0.2232,0.2255,0.2303,0.2303,0.2339,0.2349,0.2357,0.2365,0.2403,0.2417,0.2272,0.2272,0.2272,0,0,0.1861,0.1885,0.1903,0.1944,0.1975,0.2007,0.2014,0.2065,0.2106,0.2105,0.2184,0.221,0.2227,0.2285,0.2315,0.2293,0.2401,0.2363,0.237,0.2373,0.241,0.2424,0.2436,0.2275,0.2275,0.2274,0,0,0.1876,0.1915,0.1942,0.1972,0.2027,0.2046,0.2071,0.2117,0.2158,0.2223,0.224,0.2295,0.2345,0.2367,0.2382,0.246,0.2451,0.2478,0.253,0.2567,0.2579,0.2589,0.2613,0.2624,0.2482,0.2482,0.2482,0,0.189,0.1924,0.1956,0.1989,0.2023,0.2069,0.2107,0.2148,0.2212,0.225,0.2263,0.2364,0.2382,0.2447,0.2481,0.2482,0.2499,0.2481,0.2579,0.2589,0.2598,0.262,0.2632,0.2486,0.2485,0.2485,0.2485,0,0.1911,0.1958,0.1979,0.2038,0.2076,0.212,0.2173,0.2232,0.2291,0.2328,0.2424,0.2456,0.2514,0.2534,0.2534,0.2617,0.2606,0.2585,0.2545,0.2617,0.2635,0.2646,0.2492,0.249,0.2489,0.2488,0,0,0.1892,0.1978,0.1992,0.2028,0.2111,0.2137,0.2221,0.2293,0.2361,0.2431,0.2512,0.258,0.2612,0.2632,0.2648,0.2686,0.2769,0.2675,0.2676,0.2691,0.2856,0.268,0.2675,0.2771,0.2774,0.2775,0.2843,0,0.1906,0.1967,0.2014,0.2088,0.2122,0.2197,0.2267,0.2345,0.2424,0.2514,0.257,0.2656,0.2644,0.2697,0.2732,0.2768,0.2803,0.2753,0.279,0.2791,0.2619,0.2683,0.2783,0.2851,0.2853,0.2855,0.2857,0,0.1903,0.195,0.2019,0.2116,0.2142,0.2202,0.2326,0.2398,0.2525,0.2592,0.2681,0.2731,0.282,0.2797,0.2882,0.2857,0.2868,0.2879,0.2882,0.2699,0.2636,0.2764,0.2877,0.2875,0.2874,0.2872,0.2871,0,0.185,0.1949,0.2008,0.2041,0.2157,0.2221,0.23,0.2429,0.2506,0.2659,0.2732,0.2827,0.2901,0.2934,0.2966,0.2943,0.3042,0.3003,0.285,0.2838,0.2944,0.2932,0.3056,0.3056,0.3056,0.3056,0.3055,0,0.182,0.1872,0.1997,0.2026,0.2115,0.2211,0.2326,0.2423,0.257,0.2653,0.2776,0.2842,0.2945,0.3006,0.3007,0.2962,0.3074,0.2868,0.2846,0.2973,0.2964,0.2952,0.2939,0.3058,0.3058,0.3057,0.3057,0,0.1745,0.1828,0.1901,0.2039,0.2091,0.216,0.2332,0.2403,0.2566,0.2682,0.2739,0.2891,0.2961,0.3029,0.3095,0.2999,0.2985,0.294,0.3087,0.3071,0.2745,0.2736,0.2765,0.2759,0.2754,0.275,0.2747,0,0.1705,0.1738,0.1892,0.194,0.2013,0.2133,0.2209,0.2386,0.2456,0.2672,0.2701,0.285,0.292,0.2869,0.2954,0.2947,0.2908,0.2881,0.2792,0.2741,0.2718,0.2715,0.2712,0.2739,0.2738,0.2737,0.2736,0,0.1628,0.1704,0.1763,0.1867,0.1956,0.2036,0.2159,0.2195,0.2383,0.255,0.2599,0.2639,0.2713,0.2747,0.2775,0.2759,0.2885,0.283,0.2839,0.2754,0.2711,0.2691,0.2694,0.2719,0.2722,0.2723,0.2724,0,0.1577,0.1598,0.1691,0.1765,0.1867,0.1903,0.1985,0.2056,0.2148,0.2376,0.2382,0.2533,0.2679,0.265,0.2669,0.2651,0.2597,0.2495,0.2519,0.2539,0.2432,0.2342,0.2224,0,0,0,0,0,0.1511,0.1519,0.1578,0.1641,0.1733,0.1794,0.1928,0.201,0.2186,0.2158,0.2265,0.2318,0.2356,0.2435,0.2369,0.2567,0.261,0.2478,0.2505,0.2628,0.2647,0.2541,0,0,0,0,0,0,0.1463,0.1514,0.1531,0.1522,0.1541,0.1622,0.1701,0.182,0.1812,0.1999,0.203,0.2174,0.2245,0.2366,0.2323,0.2346,0.2313,0.2578,0.2572,0.2617,0.2634,0.265,0.2548,0,0,0,0,0]},{"header":{"parameterUnit":"m.s-1","parameterCategory":2,"la1":30.2991,"la2":30.254,"lo1":-89.0895,"lo2":-89.0444,"dy":0.0017,"dx":0.0017,"nx":28,"ny":28,"refTime":"2025-01-11T09:00:00:Z","depth":"4","parameterNumber":3,"parameterNumberName":"V-component_of_CURRENTS"},"data":[0,0,0,0,0,0,0,0,0,0,0,0,0,0,0,0,0,0,0,0,0,0,0,0,0,0,0,0,0,0,0,0,0,0,0,0,0,0,0,0,0,0,0,0,0,0,0,0,0,0,0,0,0,0,0,0,0,0,0.0214,0.0214,0,0.0188,0.0188,0.0188,0.017,0.017,0.017,0.017,0.0124,0.0123,0.0122,0,0,0,0,0,0,0,0,0,0,0,0,0,0.02,0.0201,0.0214,0.0214,0.0213,0.0188,0.0188,0.0187,0.017,0.017,0.017,0.017,0.0125,0.0123,0.0122,0,0,0,0,0,0,0,0,0,0,0,0,0,0.0194,0.0201,0.0214,0.0202,0.0201,0.0188,0.0188,0.0187,0.017,0.017,0.017,0.017,0.0125,0.0123,0.0122,0.0114,0,0,0.0116,0.0116,0,0,0,0,0,0,0,0,0.0194,0.0194,0.0204,0.0203,0.0201,0.0183,0.0166,0.0162,0.0171,0.0182,0.017,0.017,0.0142,0.0139,0.0134,0.0112,0.011,0.0116,0.0115,0.0115,0.0114,0,0,0,0,0,0,0,0.0195,0.0195,0.0204,0.0204,0.0202,0.0181,0.0181,0.0165,0.0162,0.0181,0.0179,0.0177,0.0141,0.0136,0.0133,0.0109,0.0116,0.0115,0.0114,0.0113,0.0075,0.0075,0,0,0,0,0,0,0.0201,0.0196,0.0204,0.0203,0.0197,0.0182,0.0181,0.0189,0.0163,0.0159,0.0177,0.0176,0.0139,0.0135,0.0131,0.0135,0.0115,0.0113,0.0112,0.0075,0.0075,0.0075,0,0,0,0,0,0,0.0201,0.0203,0.0205,0.0198,0.0197,0.0183,0.0191,0.0188,0.0188,0.0161,0.0156,0.018,0.0139,0.0134,0.0124,0.0132,0.0112,0.0111,0.0075,0.0075,0.0075,0.0132,0,0,0,0,0,0,0.0201,0.0203,0.0211,0.0199,0.0198,0.0207,0.0191,0.0188,0.0186,0.0185,0.0162,0.0157,0.0138,0.0127,0.0122,0.0129,0.0109,0.0075,0.0075,0.0075,0.013,0.0134,0.0137,0,0,0,0,0,0.0201,0.0217,0.0212,0.0213,0.021,0.0208,0.0206,0.0194,0.0187,0.0192,0.0174,0.0158,0.0123,0.0125,0.012,0.0127,0.0075,0.0075,0.0075,0.0129,0.0133,0.0137,0,0,0,0,0,0,0.0213,0.0216,0.021,0.0226,0.022,0.0205,0.0208,0.0199,0.019,0.0187,0.0161,0.0156,0.0149,0.0128,0.0131,0.0114,0.0095,0.0094,0.0137,0.0141,0.0145,0.0163,0.0108,0,0,0,0,0,0.022,0.0234,0.0227,0.0238,0.0238,0.0224,0.0221,0.0214,0.0202,0.0198,0.0181,0.016,0.0144,0.0136,0.0117,0.0111,0.0082,0.011,0.0113,0.0117,0.0126,0.0087,0.0089,0.0075,0.0075,0.0075,0,0,0.0227,0.0229,0.0237,0.0241,0.0235,0.0247,0.0222,0.0224,0.0233,0.0194,0.02,0.0173,0.0144,0.0138,0.0132,0.0123,0.0104,0.0117,0.012,0.0128,0.0087,0.0089,0.009,0.0075,0.0075,0.0075,0,0,0.025,0.0251,0.0271,0.0273,0.027,0.0264,0.0268,0.0257,0.0252,0.025,0.0224,0.0205,0.0182,0.0164,0.0151,0.0162,0.0124,0.0152,0.0187,0.0149,0.015,0.0151,0.0112,0.0109,0.0154,0.0155,0.0155,0,0.0257,0.0285,0.0275,0.0294,0.0304,0.0277,0.0302,0.0292,0.0279,0.0279,0.026,0.0222,0.0195,0.0188,0.019,0.0172,0.0142,0.0177,0.0155,0.0155,0.0155,0.0115,0.011,0.0157,0.0157,0.0157,0.0156,0,0.0297,0.0319,0.0331,0.0352,0.0359,0.0373,0.0363,0.0363,0.0349,0.0337,0.0322,0.0278,0.0259,0.0241,0.0221,0.0208,0.0185,0.0165,0.0148,0.016,0.0116,0.0111,0.0161,0.016,0.0159,0.0159,0,0,0.0319,0.0354,0.0359,0.0385,0.0393,0.0406,0.0418,0.0426,0.044,0.0403,0.0413,0.0368,0.0339,0.0322,0.0284,0.0247,0.0214,0.0211,0.0208,0.0181,0.0129,0.0114,0.0106,0.019,0.019,0.0189,0.0098,0,0.0355,0.041,0.0417,0.0469,0.0499,0.0487,0.0506,0.0505,0.0492,0.0491,0.0433,0.0425,0.0371,0.0363,0.0317,0.0245,0.0203,0.0241,0.0115,0.0111,0.0104,0.0101,0.0188,0.0094,0.0092,0.0091,0.0091,0,0.0394,0.043,0.0491,0.054,0.0552,0.0577,0.0608,0.0624,0.0607,0.0595,0.0564,0.0518,0.0466,0.0415,0.0291,0.0318,0.0233,0.0165,0.016,0.0126,0.0087,0.0079,0.008,0.0081,0.0082,0.0082,0.0083,0,0.0423,0.0482,0.0538,0.0555,0.0601,0.0627,0.0651,0.0656,0.0686,0.0665,0.0673,0.0592,0.0562,0.0443,0.0302,0.0298,0.0156,0.0131,0.0034,0.0031,0.0047,0.0047,0.0041,0.0041,0.0041,0.0041,0.0041,0,0.0462,0.0507,0.0558,0.059,0.0664,0.0676,0.0747,0.0751,0.0771,0.081,0.0735,0.0731,0.0567,0.0465,0.0326,0.0165,0.017,0.0042,0.0009,0.0071,0.0075,0.0042,0.0043,0.0038,0.0039,0.0039,0.004,0,0.0487,0.0518,0.0589,0.0653,0.0683,0.0736,0.0826,0.0873,0.0877,0.0923,0.0921,0.0838,0.0701,0.0524,0.0328,0.0207,0.0048,-0.0014,0.007,0.0042,-0.0059,-0.0054,-0.0126,-0.0127,-0.0128,-0.0129,-0.013,0,0.0505,0.0544,0.0641,0.0695,0.0731,0.0818,0.0883,0.0926,0.0976,0.0985,0.1005,0.0896,0.0812,0.0531,0.0335,0.0064,0.0021,-0.0065,-0.0067,-0.005,-0.0075,-0.0068,-0.0062,-0.0131,-0.0132,-0.0132,-0.0132,0,0.0542,0.0575,0.0637,0.0749,0.0831,0.0931,0.1019,0.1063,0.1105,0.1111,0.1073,0.0926,0.0769,0.0539,0.0326,0.0131,-0.001,-0.0077,-0.0076,-0.0079,-0.0058,-0.008,-0.0073,-0.0136,-0.0135,-0.0135,-0.0135,0,0.0569,0.0617,0.07,0.0799,0.0906,0.1004,0.1054,0.1108,0.1157,0.115,0.1134,0.0961,0.0861,0.0573,0.0379,0.0183,0.0128,0.0058,0.0051,0.0052,0.0125,0.0179,0.0148,0,0,0,0,0,0.0593,0.065,0.0743,0.0852,0.0959,0.1027,0.1128,0.1166,0.1201,0.1182,0.1159,0.101,0.0723,0.0607,0.0408,0.0346,0.0086,0.0104,0.0,-0.0155,-0.0151,-0.0099,0,0,0,0,0,0,0.0608,0.0695,0.0743,0.0878,0.096,0.1087,0.1155,0.1183,0.1171,0.1168,0.1024,0.0951,0.0679,0.0836,0.0402,0.0344,0.0247,-0.0026,-0.003,-0.0158,-0.0154,-0.0151,-0.0095,0,0,0,0,0]}]]